| time (UTC) | temp F | wind direction | speed MPH | gust MPH | rain 1hr in | rain 24hr in | rain mn in | humidity % | barometer mb |
| 20260502163057 | 66 | 44 | 13.0 | 20.0 | 0.00 | 0.67 | 0.00 | 69 | 1021.1 |
| 20260502161557 | 65 | 20 | 14.0 | 21.0 | 0.00 | 0.67 | 0.00 | 70 | 1020.9 |
| 20260502151612 | 63 | 20 | 15.0 | 24.0 | 0.00 | 0.77 | 0.00 | 76 | 1020.6 |
| 20260502150107 | 63 | 32 | 14.0 | 22.0 | 0.00 | 0.77 | 0.00 | 78 | 1020.5 |
| 20260502123105 | 58 | 51 | 13.0 | 21.0 | 0.00 | 0.88 | 0.00 | 83 | 1019.1 |
| 20260502121552 | 57 | 17 | 11.0 | 22.0 | 0.00 | 0.88 | 0.00 | 84 | 1018.8 |
| 20260502114552 | 57 | 33 | 10.0 | 21.0 | 0.00 | 0.88 | 0.00 | 84 | 1018.5 |
| 20260502113052 | 57 | 26 | 9.0 | 24.0 | 0.00 | 0.88 | 0.00 | 82 | 1018.0 |
| 20260502111554 | 56 | 30 | 14.0 | 20.0 | 0.00 | 0.88 | 0.00 | 82 | 1017.6 |
| 20260502110059 | 56 | 51 | 9.0 | 17.0 | 0.00 | 0.88 | 0.00 | 85 | 1017.4 |
| 20260502104557 | 56 | 360 | 9.0 | 17.0 | 0.00 | 0.88 | 0.00 | 86 | 1017.3 |
| 20260502103058 | 56 | 40 | 9.0 | 17.0 | 0.00 | 0.88 | 0.00 | 86 | 1017.3 |
| 20260502101616 | 56 | 54 | 8.0 | 16.0 | 0.00 | 0.88 | 0.00 | 87 | 1017.1 |
| 20260502100116 | 57 | 21 | 12.0 | 20.0 | 0.00 | 0.88 | 0.00 | 87 | 1016.7 |
| 20260502080107 | 58 | 49 | 14.0 | 24.0 | 0.00 | 0.88 | 0.00 | 88 | 1016.2 |
| 20260502064601 | 58 | 28 | 15.0 | 28.0 | 0.00 | 0.88 | 0.00 | 90 | 1015.9 |
| 20260502063105 | 57 | 55 | 17.0 | 27.0 | 0.00 | 0.88 | 0.00 | 92 | 1016.0 |
| 20260502061559 | 57 | 342 | 14.0 | 31.0 | 0.00 | 0.88 | 0.00 | 93 | 1015.9 |
| 20260502060057 | 57 | 34 | 20.0 | 27.0 | 0.00 | 0.88 | 0.00 | 93 | 1015.6 |
| 20260502054555 | 57 | 25 | 18.0 | 27.0 | 0.00 | 0.88 | 0.00 | 93 | 1015.5 |
| 20260502053112 | 57 | 346 | 15.0 | 27.0 | 0.00 | 0.88 | 0.00 | 94 | 1015.7 |
| 20260502051554 | 57 | 63 | 17.0 | 27.0 | 0.00 | 0.88 | 0.00 | 94 | 1015.3 |
| 20260502050054 | 58 | 325 | 14.0 | 28.0 | 0.00 | 0.88 | 0.00 | 95 | 1015.7 |
| 20260502044555 | 57 | 34 | 14.0 | 25.0 | 0.00 | 0.88 | 0.88 | 94 | 1015.5 |
| 20260502043106 | 58 | 40 | 13.0 | 24.0 | 0.00 | 0.88 | 0.88 | 94 | 1015.5 |
| 20260502041554 | 59 | 60 | 11.0 | 19.0 | 0.01 | 0.88 | 0.88 | 94 | 1015.2 |
| 20260502040054 | 60 | 317 | 14.0 | 21.0 | 0.03 | 0.88 | 0.88 | 94 | 1015.3 |
| 20260502034556 | 60 | 315 | 14.0 | 22.0 | 0.03 | 0.88 | 0.88 | 94 | 1015.0 |
| 20260502033103 | 60 | 17 | 12.0 | 22.0 | 0.06 | 0.88 | 0.88 | 95 | 1014.8 |
| 20260502031555 | 60 | 9 | 10.0 | 20.0 | 0.07 | 0.87 | 0.87 | 94 | 1014.6 |
| 20260502030100 | 60 | 17 | 10.0 | 21.0 | 0.07 | 0.85 | 0.85 | 94 | 1014.5 |
| 20260502024555 | 61 | 14 | 9.0 | 20.0 | 0.13 | 0.85 | 0.85 | 95 | 1014.2 |
| 20260502023110 | 61 | 327 | 12.0 | 19.0 | 0.13 | 0.82 | 0.82 | 94 | 1014.7 |
| 20260502021556 | 61 | 325 | 10.0 | 19.0 | 0.15 | 0.80 | 0.80 | 95 | 1013.8 |
| 20260502020058 | 61 | 20 | 11.0 | 17.0 | 0.16 | 0.78 | 0.78 | 94 | 1013.7 |
| 20260502014600 | 61 | 31 | 11.0 | 21.0 | 0.10 | 0.72 | 0.72 | 94 | 1013.4 |
| 20260502013059 | 61 | 17 | 13.0 | 19.0 | 0.07 | 0.69 | 0.69 | 93 | 1012.8 |
| 20260502011559 | 62 | 328 | 12.0 | 21.0 | 0.03 | 0.65 | 0.65 | 93 | 1012.8 |
| 20260502010057 | 62 | 25 | 15.0 | 29.0 | 0.00 | 0.62 | 0.62 | 93 | 1012.4 |
| 20260502004609 | 62 | 14 | 18.0 | 31.0 | 0.00 | 0.62 | 0.62 | 93 | 1011.5 |
| 20260502003054 | 63 | 36 | 18.0 | 27.0 | 0.00 | 0.62 | 0.62 | 94 | 1010.6 |
| 20260502001559 | 62 | 41 | 16.0 | 27.0 | 0.00 | 0.62 | 0.62 | 93 | 1009.8 |
| 20260502000059 | 62 | 24 | 16.0 | 25.0 | 0.00 | 0.62 | 0.62 | 94 | 1010.8 |
| 20260501234601 | 62 | 344 | 16.0 | 25.0 | 0.01 | 0.62 | 0.62 | 94 | 1010.0 |
| 20260501233058 | 62 | 38 | 16.0 | 29.0 | 0.01 | 0.62 | 0.62 | 94 | 1009.3 |
| 20260501231604 | 63 | 46 | 18.0 | 26.0 | 0.01 | 0.62 | 0.62 | 94 | 1009.9 |
| 20260501230100 | 63 | 30 | 17.0 | 27.0 | 0.01 | 0.62 | 0.62 | 93 | 1009.6 |
| 20260501224608 | 64 | 18 | 17.0 | 27.0 | 0.04 | 0.61 | 0.61 | 94 | 1010.1 |
| 20260501223111 | 64 | 42 | 11.0 | 18.0 | 0.13 | 0.61 | 0.61 | 94 | 1010.8 |
| 20260501221625 | 65 | 42 | 13.0 | 23.0 | 0.14 | 0.61 | 0.61 | 94 | 1010.4 |
| 20260501220055 | 64 | 57 | 16.0 | 29.0 | 0.14 | 0.61 | 0.61 | 94 | 1009.3 |
| 20260501214557 | 64 | 53 | 16.0 | 29.0 | 0.13 | 0.57 | 0.57 | 93 | 1009.2 |
| 20260501213113 | 64 | 50 | 15.0 | 29.0 | 0.05 | 0.48 | 0.48 | 93 | 1011.3 |
| 20260501211555 | 64 | 27 | 19.0 | 26.0 | 0.11 | 0.47 | 0.47 | 93 | 1009.8 |
| 20260501210059 | 64 | 60 | 12.0 | 21.0 | 0.14 | 0.46 | 0.46 | 93 | 1010.3 |
| 20260501204559 | 65 | 51 | 13.0 | 20.0 | 0.12 | 0.44 | 0.44 | 93 | 1010.0 |
| 20260501203105 | 64 | 34 | 15.0 | 23.0 | 0.12 | 0.43 | 0.43 | 92 | 1009.1 |
| 20260501201554 | 65 | 345 | 11.0 | 22.0 | 0.05 | 0.36 | 0.36 | 91 | 1010.0 |
| 20260501200055 | 65 | 31 | 13.0 | 29.0 | 0.04 | 0.32 | 0.32 | 91 | 1009.3 |
| 20260501194555 | 65 | 41 | 14.0 | 25.0 | 0.05 | 0.32 | 0.32 | 91 | 1009.4 |
| 20260501193052 | 65 | 51 | 15.0 | 22.0 | 0.04 | 0.31 | 0.31 | 91 | 1009.7 |
| 20260501191558 | 65 | 58 | 10.0 | 18.0 | 0.04 | 0.31 | 0.31 | 91 | 1010.0 |
| 20260501190053 | 66 | 19 | 11.0 | 24.0 | 0.01 | 0.28 | 0.28 | 89 | 1010.5 |
| 20260501184608 | 66 | 32 | 15.0 | 26.0 | 0.00 | 0.27 | 0.27 | 89 | 1009.9 |
| 20260501183058 | 66 | 69 | 12.0 | 24.0 | 0.00 | 0.27 | 0.27 | 89 | 1009.8 |
| 20260501181553 | 66 | 53 | 13.0 | 21.0 | 0.00 | 0.27 | 0.27 | 90 | 1009.9 |
| 20260501180054 | 65 | 38 | 14.0 | 20.0 | 0.00 | 0.27 | 0.27 | 91 | 1010.0 |
| 20260501174555 | 65 | 29 | 15.0 | 25.0 | 0.00 | 0.27 | 0.27 | 90 | 1010.7 |